Date String (YYYY-MM-DD hh:mm:ss) UTC,Instrument flags,Ambient pressure (hPa),Sample flow (lpm),Bypass flow (lpm),Sample temperature (°C),Ambient temperature (°C),ASC tube jacket temperature (°C),LED temperature (°C),Box temperature (°C),Sample RH (%),Span deviation,Mass concentration (μg/m³),Mass concentration (μg/m³),Mass concentration (μg/m³)
DateTimeUTC,F1_M11,P_M11,Q1_M11,Q2_M11,T1_M11,T2_M11,T3_M11,T4_M11,T5_M11,U1_M11,ZSPAN_M11,X0_M11,X2_M11,X1_M11
2022-10-14 15:00:00,,0824.3,5.00,0.00,28.4,27.1,00.0,37.1,30.3,13.7,0000.0,0010.67,0004.68,0004.15
2022-10-14 15:01:00,,0824.4,5.00,0.00,28.4,27.1,00.0,37.1,30.3,13.0,0000.0,0011.43,0004.73,0004.19
2022-10-14 15:02:00,,0824.3,5.01,0.00,28.4,27.1,00.0,37.1,30.3,13.1,0000.0,0012.41,0004.83,0004.25
2022-10-14 15:03:00,,0824.3,5.00,0.00,28.4,27.2,00.0,37.1,30.3,12.6,0000.0,0012.57,0004.90,0004.29
2022-10-14 15:04:00,,0824.2,4.99,0.00,28.4,27.2,00.0,37.1,30.4,12.4,0000.0,0012.38,0004.93,0004.31
2022-10-14 15:05:00,,0824.2,5.00,0.00,28.4,27.2,00.0,37.1,30.4,12.1,0000.0,0011.80,0004.92,0004.33
2022-10-14 15:06:00,,0824.2,5.00,0.00,28.5,27.2,00.0,37.1,30.4,11.4,0000.0,0012.00,0004.95,0004.35
2022-10-14 15:07:00,,0824.2,5.00,0.00,28.5,27.2,00.0,37.2,30.4,11.6,0000.0,0012.00,0004.97,0004.37
2022-10-14 15:08:00,,0824.2,5.00,0.00,28.5,27.3,00.0,37.2,30.4,11.4,0000.0,0012.01,0004.99,0004.39
2022-10-14 15:09:00,,0824.2,5.00,0.00,28.5,27.3,00.0,37.2,30.5,11.2,0000.0,0011.93,0005.01,0004.41
2022-10-14 15:10:00,,0824.2,5.00,0.00,28.5,27.3,00.0,37.2,30.4,11.1,0000.0,0012.01,0005.01,0004.41
2022-10-14 15:11:00,,0824.3,5.01,0.00,28.5,27.3,00.0,37.2,30.4,11.0,0000.0,0011.07,0004.93,0004.39
2022-10-14 15:12:00,,0824.2,5.00,0.00,28.5,27.3,00.0,37.2,30.5,11.2,0000.0,0010.20,0004.83,0004.33
2022-10-14 15:13:00,,0824.2,5.00,0.00,28.6,27.4,00.0,37.2,30.5,10.9,0000.0,0009.11,0004.74,0004.29
2022-10-14 15:14:00,,0824.3,5.00,0.00,28.6,27.4,00.0,37.3,30.5,10.6,0000.0,0009.47,0004.70,0004.24
2022-10-14 15:15:00,,0824.2,5.00,0.00,28.6,27.4,00.0,37.3,30.5,10.8,0000.0,0009.42,0004.68,0004.22
2022-10-14 15:16:00,,0824.3,5.00,0.00,28.6,27.4,00.0,37.3,30.6,10.8,0000.0,0008.84,0004.62,0004.19
2022-10-14 15:17:00,,0824.3,5.00,0.00,28.6,27.4,00.0,37.3,30.6,10.9,0000.0,0008.58,0004.58,0004.16
2022-10-14 15:18:00,,0824.2,4.99,0.00,28.6,27.5,00.0,37.3,30.6,11.1,0000.0,0008.59,0004.56,0004.16
2022-10-14 15:19:00,,0824.2,5.00,0.00,28.7,27.5,00.0,37.3,30.6,11.5,0000.0,0009.71,0004.60,0004.16
2022-10-14 15:20:00,,0824.2,5.00,0.00,28.7,27.5,00.0,37.4,30.6,11.7,-000.2,0010.27,0004.65,0004.18
2022-10-14 15:21:00,,0824.1,5.00,0.00,28.7,27.5,00.0,37.4,30.7,11.3,0000.6,0010.72,0004.68,0004.19
2022-10-14 15:22:00,,0824.1,5.00,0.00,28.7,27.5,00.0,37.4,30.7,11.5,0000.1,0010.30,0004.69,0004.20
2022-10-14 15:23:00,,0824.2,5.00,0.00,28.7,27.5,00.0,37.4,30.7,11.7,0000.0,0010.57,0004.77,0004.22
2022-10-14 15:24:00,,0824.2,5.00,0.00,28.7,27.5,00.0,37.4,30.7,11.5,0000.0,0010.70,0004.81,0004.22
2022-10-14 15:25:00,,0824.2,5.00,0.00,28.7,27.5,00.0,37.5,30.7,12.0,0000.0,0010.36,0004.82,0004.25
2022-10-14 15:26:00,,0824.2,5.00,0.00,28.8,27.6,00.0,37.5,30.7,12.4,0000.0,0010.53,0004.83,0004.26
2022-10-14 15:27:00,,0824.2,5.00,0.00,28.8,27.6,00.0,37.5,30.7,11.8,0000.0,0010.60,0004.87,0004.27
2022-10-14 15:28:00,,0824.2,5.00,0.00,28.8,27.6,00.0,37.5,30.7,12.2,0000.0,0010.69,0004.91,0004.30
2022-10-14 15:29:00,,0824.2,5.00,0.00,28.8,27.6,00.0,37.6,30.7,12.0,0000.0,0010.79,0004.94,0004.31
2022-10-14 15:30:00,,0824.3,4.98,0.00,28.8,27.7,00.0,37.6,30.8,12.2,0000.0,0009.77,0004.89,0004.31
2022-10-14 15:31:00,,0824.3,5.00,0.00,28.8,27.7,00.0,37.6,30.8,12.2,0000.0,0009.14,0004.86,0004.30
2022-10-14 15:32:00,,0824.2,5.01,0.00,28.9,27.7,00.0,37.6,30.8,11.7,0000.0,0008.50,0004.84,0004.29
2022-10-14 15:33:00,,0824.3,5.01,0.00,28.9,27.7,00.0,37.6,30.8,11.1,0000.0,0008.97,0004.85,0004.27
2022-10-14 15:34:00,,0824.3,5.00,0.00,28.9,27.7,00.0,37.6,30.8,11.8,0000.0,0009.29,0004.84,0004.26
2022-10-14 15:35:00,,0824.2,5.01,0.00,28.9,27.7,00.0,37.7,30.8,12.0,0000.0,0009.30,0004.81,0004.24
2022-10-14 15:36:00,,0824.3,4.99,0.00,28.9,27.7,00.0,37.7,30.8,11.6,0000.1,0009.34,0004.81,0004.23
2022-10-14 15:37:00,,0824.2,5.00,0.00,28.9,27.7,00.0,37.7,30.8,11.8,0000.1,0009.07,0004.80,0004.20
2022-10-14 15:38:00,,0824.2,5.01,0.00,29.0,27.8,00.0,37.7,30.8,12.1,0000.9,0009.20,0004.78,0004.20
2022-10-14 15:39:00,,0824.2,5.00,0.00,29.0,27.8,00.0,37.7,30.9,11.4,0001.5,0009.38,0004.80,0004.19
2022-10-14 15:40:00,,0824.2,5.00,0.00,29.0,27.8,00.0,37.7,30.9,10.9,0002.2,0009.28,0004.78,0004.18
2022-10-14 15:41:00,,0824.2,5.01,0.00,29.0,27.8,00.0,37.8,30.9,11.6,0001.8,0009.70,0004.80,0004.18
2022-10-14 15:42:00,,0824.3,4.98,0.00,29.0,27.8,00.0,37.8,30.9,11.7,0000.0,0010.26,0004.84,0004.19
2022-10-14 15:43:00,,0824.2,5.02,0.00,29.0,27.8,00.0,37.8,30.9,11.2,0000.0,0010.46,0004.84,0004.19
2022-10-14 15:44:00,,0824.2,5.00,0.00,29.1,27.8,00.0,37.8,30.9,11.6,0000.0,0010.78,0004.81,0004.21
2022-10-14 15:45:00,,0824.2,5.00,0.00,29.1,27.9,00.0,37.8,31.0,11.5,0000.0,0010.63,0004.81,0004.22
2022-10-14 15:46:00,,0824.2,5.00,0.00,29.1,27.9,00.0,37.8,31.0,11.7,0000.0,0010.85,0004.82,0004.24
2022-10-14 15:47:00,,0824.2,5.00,0.00,29.1,27.9,00.0,37.9,31.0,11.7,0000.0,0010.85,0004.84,0004.26
2022-10-14 15:48:00,,0824.2,5.00,0.00,29.1,27.9,00.0,37.9,31.0,12.1,0000.0,0011.03,0004.84,0004.29
2022-10-14 15:49:00,,0824.2,5.00,0.00,29.1,27.9,00.0,37.9,31.0,12.2,0000.0,0010.96,0004.85,0004.31
2022-10-14 15:50:00,,0824.1,4.99,0.00,29.1,27.9,00.0,37.9,31.0,12.3,0000.0,0011.55,0004.87,0004.33
2022-10-14 15:51:00,,0824.1,4.99,0.00,29.2,27.9,00.0,37.9,31.1,11.8,0000.0,0011.68,0004.85,0004.33
2022-10-14 15:52:00,,0824.1,5.00,0.00,29.2,28.0,00.0,37.9,31.1,11.3,0000.0,0011.76,0004.86,0004.34
2022-10-14 15:53:00,,0824.1,5.01,0.00,29.2,28.0,00.0,38.0,31.1,11.0,0000.0,0011.28,0004.81,0004.33
2022-10-14 15:54:00,,0824.1,5.00,0.00,29.2,28.0,00.0,38.0,31.1,11.1,0000.0,0010.68,0004.78,0004.30
2022-10-14 15:55:00,,0824.1,5.00,0.00,29.2,28.0,00.0,38.0,31.1,10.9,0000.0,0010.54,0004.77,0004.29
2022-10-14 15:56:00,,0824.1,5.01,0.00,29.2,28.0,00.0,38.0,31.1,11.1,0000.0,0010.64,0004.77,0004.28
2022-10-14 15:57:00,,0824.1,5.00,0.00,29.3,28.0,00.0,38.0,31.1,11.3,0000.0,0010.49,0004.77,0004.26
2022-10-14 15:58:00,,0824.1,5.00,0.00,29.3,28.0,00.0,38.0,31.1,11.3,0000.0,0010.93,0004.76,0004.25
2022-10-14 15:59:00,,0824.1,5.00,0.00,29.3,28.1,00.0,38.0,31.2,11.1,0000.0,0011.06,0004.75,0004.23
